Time,TemperatureF,DewpointF,PressureIn,WindDirection,WindDirectionDegrees,WindSpeedMPH,WindSpeedGustMPH,Humidity,HourlyPrecipIn,Conditions,Clouds,dailyrainin,SoftwareType,DateUTC
2013-04-03 00:03:00,40.6,26.1,30.22,East,90,2.9,4.3,56,0.00,,,0.10,wxRedirect v1.1,2013-04-03 05:03:00,
2013-04-03 00:08:00,40.5,25.9,30.22,East,90,0.0,4.3,56,0.00,,,0.10,wxRedirect v1.1,2013-04-03 05:08:00,
2013-04-03 00:14:00,40.3,25.7,30.22,ENE,67,0.9,1.8,56,0.00,,,0.10,wxRedirect v1.1,2013-04-03 05:14:00,
2013-04-03 00:19:00,40.3,25.7,30.22,ENE,67,1.3,3.8,56,0.00,,,0.10,wxRedirect v1.1,2013-04-03 05:19:00,
2013-04-03 00:25:00,40.3,26.2,30.22,NE,45,0.0,4.5,57,0.00,,,0.10,wxRedirect v1.1,2013-04-03 05:25:00,
2013-04-03 00:30:00,40.1,26.0,30.22,NE,45,5.8,5.8,57,0.00,,,0.10,wxRedirect v1.1,2013-04-03 05:30:00,
2013-04-03 00:35:00,40.1,26.0,30.22,NE,45,0.0,5.8,57,0.00,,,0.10,wxRedirect v1.1,2013-04-03 05:35:00,
2013-04-03 00:41:00,39.9,25.8,30.22,NE,45,2.9,8.1,57,0.00,,,0.10,wxRedirect v1.1,2013-04-03 05:41:00,
2013-04-03 00:46:00,39.9,25.8,30.22,NE,45,0.0,8.1,57,0.00,,,0.10,wxRedirect v1.1,2013-04-03 05:46:00,
2013-04-03 00:51:00,39.9,25.8,30.22,NE,45,0.0,3.8,57,0.00,,,0.10,wxRedirect v1.1,2013-04-03 05:51:00,
2013-04-03 00:57:00,39.9,26.3,30.22,NE,45,4.3,4.3,58,0.00,,,0.10,wxRedirect v1.1,2013-04-03 05:57:00,
2013-04-03 01:02:00,39.7,26.1,30.22,NE,45,3.8,4.3,58,0.00,,,0.10,wxRedirect v1.1,2013-04-03 06:02:00,
2013-04-03 01:07:00,39.6,26.3,30.23,NE,45,2.7,4.3,59,0.00,,,0.10,wxRedirect v1.1,2013-04-03 06:07:00,
2013-04-03 01:13:00,39.7,26.5,30.24,NE,45,0.0,2.7,59,0.00,,,0.10,wxRedirect v1.1,2013-04-03 06:13:00,
2013-04-03 01:18:00,39.7,26.5,30.24,NE,45,0.9,0.9,59,0.00,,,0.10,wxRedirect v1.1,2013-04-03 06:18:00,
2013-04-03 01:24:00,39.9,26.7,30.24,NE,45,0.0,2.7,59,0.00,,,0.10,wxRedirect v1.1,2013-04-03 06:24:00,
2013-04-03 01:29:00,39.9,26.7,30.24,NE,45,0.0,2.7,59,0.00,,,0.10,wxRedirect v1.1,2013-04-03 06:29:00,
2013-04-03 01:34:00,39.9,26.7,30.24,NE,45,0.0,0.0,59,0.00,,,0.10,wxRedirect v1.1,2013-04-03 06:34:00,
2013-04-03 01:40:00,39.9,26.7,30.24,NE,45,1.6,1.6,59,0.00,,,0.10,wxRedirect v1.1,2013-04-03 06:40:00,
2013-04-03 01:45:00,39.9,26.7,30.24,NE,45,0.0,2.5,59,0.00,,,0.10,wxRedirect v1.1,2013-04-03 06:45:00,
2013-04-03 01:50:00,39.9,26.7,30.24,NE,45,0.0,2.5,59,0.00,,,0.10,wxRedirect v1.1,2013-04-03 06:50:00,
2013-04-03 01:56:00,39.9,26.7,30.24,NE,45,0.0,0.0,59,0.00,,,0.10,wxRedirect v1.1,2013-04-03 06:56:00,
2013-04-03 02:01:00,39.9,27.1,30.24,NE,45,0.0,0.0,60,0.00,,,0.08,wxRedirect v1.1,2013-04-03 07:01:00,
2013-04-03 02:06:00,39.9,27.1,30.25,NE,45,0.0,0.0,60,0.00,,,0.08,wxRedirect v1.1,2013-04-03 07:06:00,
2013-04-03 02:11:00,39.9,27.1,30.25,NE,45,0.0,1.1,60,0.00,,,0.08,wxRedirect v1.1,2013-04-03 07:11:00,
2013-04-03 02:16:00,39.9,27.1,30.24,NE,45,0.0,1.1,60,0.00,,,0.08,wxRedirect v1.1,2013-04-03 07:16:00,
2013-04-03 02:22:00,39.9,27.1,30.24,NE,45,1.8,2.0,60,0.00,,,0.08,wxRedirect v1.1,2013-04-03 07:22:00,
2013-04-03 02:27:00,39.9,27.1,30.24,NE,45,1.3,2.0,60,0.00,,,0.08,wxRedirect v1.1,2013-04-03 07:27:00,
2013-04-03 02:32:00,39.9,27.1,30.24,NE,45,2.2,3.8,60,0.00,,,0.08,wxRedirect v1.1,2013-04-03 07:32:00,
2013-04-03 02:38:00,39.9,27.1,30.24,NE,45,2.9,4.3,60,0.00,,,0.08,wxRedirect v1.1,2013-04-03 07:38:00,
2013-04-03 02:43:00,39.9,27.1,30.24,NE,45,4.3,4.3,60,0.00,,,0.08,wxRedirect v1.1,2013-04-03 07:43:00,
2013-04-03 02:48:00,39.7,27.0,30.24,NE,45,1.1,4.3,60,0.00,,,0.08,wxRedirect v1.1,2013-04-03 07:48:00,
2013-04-03 02:54:00,39.7,27.0,30.24,NE,45,0.0,3.6,60,0.00,,,0.08,wxRedirect v1.1,2013-04-03 07:54:00,
2013-04-03 02:59:00,39.7,27.3,30.24,NE,45,0.0,3.6,61,0.00,,,0.08,wxRedirect v1.1,2013-04-03 07:59:00,
2013-04-03 03:05:00,39.6,27.2,30.24,NE,45,0.0,3.4,61,0.00,,,0.06,wxRedirect v1.1,2013-04-03 08:05:00,
2013-04-03 03:10:00,39.7,27.3,30.24,NE,45,0.0,0.0,61,0.00,,,0.06,wxRedirect v1.1,2013-04-03 08:10:00,
2013-04-03 03:15:00,39.7,27.3,30.24,NE,45,0.0,0.0,61,0.00,,,0.06,wxRedirect v1.1,2013-04-03 08:15:00,
2013-04-03 03:20:00,39.9,27.5,30.23,NE,45,0.0,0.0,61,0.00,,,0.06,wxRedirect v1.1,2013-04-03 08:20:00,
2013-04-03 03:26:00,39.9,27.5,30.23,NE,45,0.0,0.0,61,0.00,,,0.06,wxRedirect v1.1,2013-04-03 08:26:00,
2013-04-03 03:31:00,39.9,27.5,30.23,NE,45,1.6,1.6,61,0.00,,,0.06,wxRedirect v1.1,2013-04-03 08:31:00,
2013-04-03 03:36:00,39.9,27.5,30.24,NE,45,2.5,2.5,61,0.00,,,0.06,wxRedirect v1.1,2013-04-03 08:36:00,
2013-04-03 03:42:00,39.9,27.5,30.23,NE,45,3.4,3.4,61,0.00,,,0.06,wxRedirect v1.1,2013-04-03 08:42:00,
2013-04-03 03:47:00,39.9,27.5,30.23,NE,45,2.7,3.4,61,0.00,,,0.06,wxRedirect v1.1,2013-04-03 08:47:00,
2013-04-03 03:52:00,39.9,27.5,30.23,NE,45,0.4,3.4,61,0.00,,,0.06,wxRedirect v1.1,2013-04-03 08:52:00,
2013-04-03 03:58:00,39.9,27.9,30.23,NE,45,0.0,0.4,62,0.00,,,0.06,wxRedirect v1.1,2013-04-03 08:58:00,
2013-04-03 04:03:00,39.7,27.7,30.23,NE,45,4.7,4.7,62,0.00,,,0.06,wxRedirect v1.1,2013-04-03 09:03:00,
2013-04-03 04:08:00,39.9,27.9,30.23,NE,45,3.6,4.7,62,0.00,,,0.06,wxRedirect v1.1,2013-04-03 09:08:00,
2013-04-03 04:14:00,39.7,27.7,30.23,NE,45,2.9,5.1,62,0.00,,,0.06,wxRedirect v1.1,2013-04-03 09:14:00,
2013-04-03 04:19:00,39.7,28.1,30.23,NE,45,2.2,5.1,63,0.00,,,0.06,wxRedirect v1.1,2013-04-03 09:19:00,
2013-04-03 04:24:00,39.7,27.7,30.22,NE,45,3.8,3.8,62,0.00,,,0.06,wxRedirect v1.1,2013-04-03 09:24:00,
2013-04-03 04:30:00,39.7,28.1,30.22,NE,45,3.4,5.4,63,0.00,,,0.06,wxRedirect v1.1,2013-04-03 09:30:00,
2013-04-03 04:35:00,39.7,28.1,30.22,NE,45,4.3,5.4,63,0.00,,,0.06,wxRedirect v1.1,2013-04-03 09:35:00,
2013-04-03 04:40:00,39.7,28.1,30.22,NE,45,1.6,5.1,63,0.00,,,0.06,wxRedirect v1.1,2013-04-03 09:40:00,
2013-04-03 04:46:00,39.7,28.1,30.22,NE,45,0.0,5.1,63,0.00,,,0.06,wxRedirect v1.1,2013-04-03 09:46:00,
2013-04-03 04:51:00,39.7,28.1,30.22,NE,45,1.8,5.1,63,0.00,,,0.06,wxRedirect v1.1,2013-04-03 09:51:00,
2013-04-03 04:56:00,39.7,28.1,30.22,NE,45,3.6,5.1,63,0.00,,,0.06,wxRedirect v1.1,2013-04-03 09:56:00,
2013-04-03 05:02:00,39.7,28.1,30.22,NE,45,4.7,4.7,63,0.00,,,0.06,wxRedirect v1.1,2013-04-03 10:02:00,
2013-04-03 05:07:00,39.7,28.1,30.22,ENE,67,2.9,5.1,63,0.00,,,0.06,wxRedirect v1.1,2013-04-03 10:07:00,
2013-04-03 05:12:00,39.6,27.9,30.22,NE,45,4.9,6.0,63,0.00,,,0.06,wxRedirect v1.1,2013-04-03 10:12:00,
2013-04-03 05:18:00,39.6,27.9,30.21,ENE,67,4.5,6.0,63,0.00,,,0.06,wxRedirect v1.1,2013-04-03 10:18:00,
2013-04-03 05:23:00,39.4,27.4,30.22,East,90,2.7,6.0,62,0.00,,,0.06,wxRedirect v1.1,2013-04-03 10:23:00,
2013-04-03 05:28:00,39.4,27.0,30.22,ESE,112,4.3,6.0,61,0.00,,,0.06,wxRedirect v1.1,2013-04-03 10:28:00,
2013-04-03 05:34:00,39.6,26.8,30.23,ENE,67,2.9,7.2,60,0.00,,,0.06,wxRedirect v1.1,2013-04-03 10:34:00,
2013-04-03 05:39:00,39.6,26.8,30.22,ENE,67,4.0,7.2,60,0.00,,,0.06,wxRedirect v1.1,2013-04-03 10:39:00,
2013-04-03 05:44:00,39.6,26.8,30.22,East,90,4.5,4.9,60,0.00,,,0.06,wxRedirect v1.1,2013-04-03 10:44:00,
2013-04-03 05:50:00,39.6,26.8,30.22,ENE,67,0.0,4.5,60,0.00,,,0.06,wxRedirect v1.1,2013-04-03 10:50:00,
2013-04-03 05:55:00,39.4,26.6,30.23,ESE,112,0.7,4.5,60,0.00,,,0.06,wxRedirect v1.1,2013-04-03 10:55:00,
2013-04-03 06:00:00,39.4,26.6,30.23,ESE,112,0.7,4.5,60,0.00,,,0.06,wxRedirect v1.1,2013-04-03 11:00:00,
2013-04-03 06:06:00,39.4,26.6,30.23,ENE,67,4.0,4.0,60,0.00,,,0.06,wxRedirect v1.1,2013-04-03 11:06:00,
2013-04-03 06:11:00,39.0,26.3,30.23,East,90,0.0,6.5,60,0.00,,,0.06,wxRedirect v1.1,2013-04-03 11:11:00,
2013-04-03 06:16:00,39.4,26.6,30.23,ENE,67,4.9,6.5,60,0.00,,,0.06,wxRedirect v1.1,2013-04-03 11:16:00,
2013-04-03 06:22:00,39.4,26.6,30.23,ENE,67,0.4,4.9,60,0.00,,,0.06,wxRedirect v1.1,2013-04-03 11:22:00,
2013-04-03 06:27:00,39.2,26.4,30.24,ENE,67,3.6,4.9,60,0.00,,,0.06,wxRedirect v1.1,2013-04-03 11:27:00,
2013-04-03 06:32:00,39.0,26.6,30.24,ESE,112,3.6,4.5,61,0.00,,,0.06,wxRedirect v1.1,2013-04-03 11:32:00,
2013-04-03 06:37:00,39.0,26.6,30.23,ENE,67,3.1,3.6,61,0.00,,,0.06,wxRedirect v1.1,2013-04-03 11:37:00,
2013-04-03 06:43:00,39.0,26.6,30.23,NE,45,1.3,4.0,61,0.00,,,0.06,wxRedirect v1.1,2013-04-03 11:43:00,
2013-04-03 06:48:00,39.0,26.6,30.23,ENE,67,3.8,4.0,61,0.00,,,0.06,wxRedirect v1.1,2013-04-03 11:48:00,
2013-04-03 06:53:00,39.0,26.6,30.23,ENE,67,4.0,4.0,61,0.00,,,0.06,wxRedirect v1.1,2013-04-03 11:53:00,
2013-04-03 06:59:00,39.0,26.6,30.23,East,90,0.0,4.0,61,0.00,,,0.06,wxRedirect v1.1,2013-04-03 11:59:00,
2013-04-03 07:04:00,38.8,26.5,30.24,ESE,112,2.9,4.7,61,0.00,,,0.06,wxRedirect v1.1,2013-04-03 12:04:00,
2013-04-03 07:09:00,39.0,26.6,30.24,East,90,3.6,4.7,61,0.00,,,0.06,wxRedirect v1.1,2013-04-03 12:09:00,
2013-04-03 07:15:00,39.0,26.6,30.24,NE,45,6.7,6.7,61,0.00,,,0.06,wxRedirect v1.1,2013-04-03 12:15:00,
2013-04-03 07:20:00,39.0,26.6,30.25,East,90,6.7,8.1,61,0.00,,,0.06,wxRedirect v1.1,2013-04-03 12:20:00,
2013-04-03 07:25:00,38.8,26.5,30.25,ENE,67,4.3,8.1,61,0.00,,,0.06,wxRedirect v1.1,2013-04-03 12:25:00,
2013-04-03 07:31:00,38.8,26.5,30.25,ENE,67,1.6,4.5,61,0.00,,,0.06,wxRedirect v1.1,2013-04-03 12:31:00,
2013-04-03 07:36:00,38.8,26.5,30.25,East,90,7.6,7.6,61,0.00,,,0.06,wxRedirect v1.1,2013-04-03 12:36:00,
2013-04-03 07:41:00,38.8,26.5,30.26,East,90,2.9,7.6,61,0.00,,,0.06,wxRedirect v1.1,2013-04-03 12:41:00,
2013-04-03 07:47:00,38.8,26.5,30.26,ENE,67,4.9,7.6,61,0.00,,,0.06,wxRedirect v1.1,2013-04-03 12:47:00,
2013-04-03 07:52:00,38.8,26.5,30.27,East,90,0.0,6.9,61,0.00,,,0.06,wxRedirect v1.1,2013-04-03 12:52:00,
2013-04-03 07:57:00,38.8,26.5,30.27,ENE,67,0.0,6.9,61,0.00,,,0.06,wxRedirect v1.1,2013-04-03 12:57:00,
2013-04-03 08:02:00,38.8,26.5,30.27,East,90,5.8,5.8,61,0.00,,,0.06,wxRedirect v1.1,2013-04-03 13:02:00,
2013-04-03 08:07:00,38.8,26.5,30.27,ENE,67,3.1,5.8,61,0.00,,,0.06,wxRedirect v1.1,2013-04-03 13:07:00,
2013-04-03 08:13:00,39.0,26.6,30.27,East,90,0.0,3.1,61,0.00,,,0.06,wxRedirect v1.1,2013-04-03 13:13:00,
2013-04-03 08:18:00,38.8,26.1,30.27,East,90,0.0,3.1,60,0.00,,,0.06,wxRedirect v1.1,2013-04-03 13:18:00,
2013-04-03 08:23:00,39.0,26.3,30.28,ESE,112,0.0,0.0,60,0.00,,,0.06,wxRedirect v1.1,2013-04-03 13:23:00,
2013-04-03 08:29:00,39.0,25.8,30.28,East,90,1.8,3.4,59,0.00,,,0.06,wxRedirect v1.1,2013-04-03 13:29:00,
2013-04-03 08:34:00,39.0,25.8,30.28,ENE,67,5.1,7.4,59,0.00,,,0.06,wxRedirect v1.1,2013-04-03 13:34:00,
2013-04-03 08:39:00,39.0,25.8,30.29,East,90,2.0,7.4,59,0.00,,,0.06,wxRedirect v1.1,2013-04-03 13:39:00,
2013-04-03 08:45:00,39.0,25.4,30.29,ESE,112,1.3,5.1,58,0.00,,,0.06,wxRedirect v1.1,2013-04-03 13:45:00,
2013-04-03 08:50:00,39.2,25.6,30.29,East,90,6.3,6.3,58,0.00,,,0.06,wxRedirect v1.1,2013-04-03 13:50:00,
2013-04-03 08:55:00,39.2,25.1,30.29,SE,135,2.9,6.3,57,0.00,,,0.06,wxRedirect v1.1,2013-04-03 13:55:00,
2013-04-03 09:01:00,39.4,25.3,30.29,ESE,112,3.1,3.6,57,0.00,,,0.04,wxRedirect v1.1,2013-04-03 14:01:00,
2013-04-03 09:07:00,39.4,25.3,30.30,ESE,112,0.9,5.8,57,0.00,,,0.04,wxRedirect v1.1,2013-04-03 14:07:00,
2013-04-03 09:12:00,39.4,25.3,30.29,ESE,112,0.0,5.8,57,0.00,,,0.04,wxRedirect v1.1,2013-04-03 14:12:00,
2013-04-03 09:17:00,39.4,25.3,30.29,ENE,67,2.0,2.0,57,0.00,,,0.04,wxRedirect v1.1,2013-04-03 14:17:00,
2013-04-03 09:23:00,39.4,25.3,30.29,ENE,67,2.5,2.9,57,0.00,,,0.04,wxRedirect v1.1,2013-04-03 14:23:00,
2013-04-03 09:28:00,39.6,25.5,30.29,ENE,67,0.0,2.9,57,0.00,,,0.04,wxRedirect v1.1,2013-04-03 14:28:00,
2013-04-03 09:33:00,39.4,25.3,30.29,ENE,67,2.9,2.9,57,0.00,,,0.04,wxRedirect v1.1,2013-04-03 14:33:00,
2013-04-03 09:39:00,39.4,25.3,30.29,ENE,67,1.8,4.3,57,0.00,,,0.04,wxRedirect v1.1,2013-04-03 14:39:00,
2013-04-03 09:44:00,39.4,25.3,30.28,ENE,67,2.9,4.3,57,0.00,,,0.04,wxRedirect v1.1,2013-04-03 14:44:00,
2013-04-03 09:49:00,39.0,25.0,30.28,ENE,67,6.9,6.9,57,0.00,,,0.04,wxRedirect v1.1,2013-04-03 14:49:00,
2013-04-03 09:55:00,39.0,24.5,30.28,East,90,6.7,6.9,56,0.00,,,0.04,wxRedirect v1.1,2013-04-03 14:55:00,
2013-04-03 10:00:00,39.4,25.3,30.28,ENE,67,5.4,7.6,57,0.00,,,0.02,wxRedirect v1.1,2013-04-03 15:00:00,
2013-04-03 10:05:00,39.4,24.9,30.28,East,90,0.0,7.6,56,0.00,,,0.02,wxRedirect v1.1,2013-04-03 15:05:00,
2013-04-03 10:11:00,39.4,24.9,30.28,ENE,67,2.7,3.4,56,0.00,,,0.02,wxRedirect v1.1,2013-04-03 15:11:00,
2013-04-03 10:16:00,39.0,24.5,30.29,East,90,3.4,4.0,56,0.00,,,0.02,wxRedirect v1.1,2013-04-03 15:16:00,
2013-04-03 10:22:00,39.4,24.9,30.29,East,90,2.7,6.5,56,0.00,,,0.02,wxRedirect v1.1,2013-04-03 15:22:00,
2013-04-03 10:27:00,39.4,24.9,30.30,ESE,112,1.8,6.5,56,0.00,,,0.02,wxRedirect v1.1,2013-04-03 15:27:00,
2013-04-03 10:32:00,39.4,24.4,30.30,ESE,112,0.7,6.3,55,0.00,,,0.02,wxRedirect v1.1,2013-04-03 15:32:00,
2013-04-03 10:37:00,39.6,24.6,30.30,East,90,0.0,6.3,55,0.00,,,0.02,wxRedirect v1.1,2013-04-03 15:37:00,
2013-04-03 10:43:00,39.6,24.6,30.31,ENE,67,6.7,8.9,55,0.00,,,0.02,wxRedirect v1.1,2013-04-03 15:43:00,
2013-04-03 10:48:00,39.6,25.0,30.31,ESE,112,3.1,8.9,56,0.00,,,0.02,wxRedirect v1.1,2013-04-03 15:48:00,
2013-04-03 10:54:00,39.4,25.3,30.31,ESE,112,5.1,6.9,57,0.00,,,0.02,wxRedirect v1.1,2013-04-03 15:54:00,
2013-04-03 11:00:00,39.0,25.4,30.31,ENE,67,2.2,7.4,58,0.00,,,0.02,wxRedirect v1.1,2013-04-03 16:00:00,
2013-04-03 11:05:00,39.0,25.8,30.31,East,90,0.9,7.4,59,0.00,,,0.02,wxRedirect v1.1,2013-04-03 16:05:00,
2013-04-03 11:10:00,38.8,26.1,30.31,ENE,67,0.0,2.2,60,0.00,,,0.02,wxRedirect v1.1,2013-04-03 16:10:00,
2013-04-03 11:15:00,38.8,26.1,30.30,NNE,22,0.7,5.6,60,0.00,,,0.02,wxRedirect v1.1,2013-04-03 16:15:00,
2013-04-03 11:21:00,38.8,26.9,30.30,NE,45,4.7,5.6,62,0.00,,,0.02,wxRedirect v1.1,2013-04-03 16:21:00,
2013-04-03 11:26:00,39.0,27.0,30.30,NE,45,8.1,8.1,62,0.00,,,0.02,wxRedirect v1.1,2013-04-03 16:26:00,
2013-04-03 11:31:00,39.0,27.4,30.31,NE,45,6.9,8.1,63,0.00,,,0.02,wxRedirect v1.1,2013-04-03 16:31:00,
2013-04-03 11:37:00,39.4,27.7,30.31,ENE,67,2.9,6.9,63,0.00,,,0.02,wxRedirect v1.1,2013-04-03 16:37:00,
2013-04-03 11:42:00,39.6,27.5,30.31,NE,45,0.9,6.9,62,0.00,,,0.02,wxRedirect v1.1,2013-04-03 16:42:00,
2013-04-03 11:47:00,39.7,27.7,30.30,NE,45,7.4,7.4,62,0.00,,,0.02,wxRedirect v1.1,2013-04-03 16:47:00,
2013-04-03 11:53:00,40.1,28.1,30.30,NE,45,3.4,7.4,62,0.00,,,0.02,wxRedirect v1.1,2013-04-03 16:53:00,
2013-04-03 11:58:00,40.3,28.3,30.30,NE,45,9.2,9.2,62,0.00,,,0.02,wxRedirect v1.1,2013-04-03 16:58:00,
2013-04-03 12:03:00,40.5,28.1,30.29,NE,45,0.4,9.2,61,-99.99,,,0.00,wxRedirect v1.1,2013-04-03 17:03:00,
2013-04-03 12:09:00,40.8,28.0,30.30,ENE,67,3.1,6.7,60,-99.99,,,0.00,wxRedirect v1.1,2013-04-03 17:09:00,
2013-04-03 12:15:00,40.8,27.6,30.30,ESE,112,4.3,10.5,59,-99.99,,,0.00,wxRedirect v1.1,2013-04-03 17:15:00,
2013-04-03 12:20:00,41.2,27.0,30.30,ESE,112,5.8,10.5,57,-99.99,,,0.00,wxRedirect v1.1,2013-04-03 17:20:00,
2013-04-03 12:25:00,41.5,26.5,30.30,SE,135,6.0,8.9,55,-99.99,,,0.00,wxRedirect v1.1,2013-04-03 17:25:00,
2013-04-03 12:31:00,41.5,26.0,30.30,East,90,2.7,8.9,54,-99.99,,,0.00,wxRedirect v1.1,2013-04-03 17:31:00,
2013-04-03 12:36:00,41.5,26.0,30.30,SE,135,8.3,8.3,54,-99.99,,,0.00,wxRedirect v1.1,2013-04-03 17:36:00,
2013-04-03 12:41:00,41.7,25.8,30.30,SE,135,5.1,8.3,53,-99.99,,,0.00,wxRedirect v1.1,2013-04-03 17:41:00,
2013-04-03 12:47:00,41.5,25.6,30.30,SSE,157,9.8,12.5,53,-99.99,,,0.00,wxRedirect v1.1,2013-04-03 17:47:00,
2013-04-03 12:52:00,41.7,27.1,30.30,ESE,112,6.7,12.5,56,-99.99,,,0.00,wxRedirect v1.1,2013-04-03 17:52:00,
2013-04-03 12:58:00,41.4,27.6,30.30,SE,135,10.3,13.2,58,-99.99,,,0.00,wxRedirect v1.1,2013-04-03 17:58:00,
2013-04-03 13:03:00,40.8,27.6,30.30,SE,135,10.7,13.2,59,-99.99,,,0.00,wxRedirect v1.1,2013-04-03 18:03:00,
2013-04-03 13:09:00,40.3,27.9,30.30,SSE,157,11.4,11.4,61,-99.99,,,0.00,wxRedirect v1.1,2013-04-03 18:09:00,
2013-04-03 13:14:00,40.1,28.1,30.30,SE,135,4.9,12.5,62,-99.99,,,0.00,wxRedirect v1.1,2013-04-03 18:14:00,
2013-04-03 13:19:00,39.9,28.3,30.30,SE,135,6.3,12.5,63,-99.99,,,0.00,wxRedirect v1.1,2013-04-03 18:19:00,
2013-04-03 13:24:00,39.9,28.7,30.30,SSE,157,3.1,6.3,64,-99.99,,,0.00,wxRedirect v1.1,2013-04-03 18:24:00,
2013-04-03 13:30:00,39.7,28.5,30.30,SE,135,6.9,6.9,64,-99.99,,,0.00,wxRedirect v1.1,2013-04-03 18:30:00,
2013-04-03 13:35:00,39.9,28.7,30.30,SSE,157,8.5,8.5,64,-99.99,,,0.00,wxRedirect v1.1,2013-04-03 18:35:00,
2013-04-03 13:40:00,39.9,29.0,30.30,ESE,112,8.5,8.5,65,-99.99,,,0.00,wxRedirect v1.1,2013-04-03 18:40:00,
2013-04-03 13:45:00,39.9,29.0,30.30,ESE,112,6.7,8.5,65,-99.99,,,0.00,wxRedirect v1.1,2013-04-03 18:45:00,
2013-04-03 13:52:00,40.1,28.8,30.29,ESE,112,4.9,6.7,64,-99.99,,,0.00,wxRedirect v1.1,2013-04-03 18:52:00,
2013-04-03 13:57:00,40.3,29.0,30.29,ESE,112,1.3,9.2,64,-99.99,,,0.00,wxRedirect v1.1,2013-04-03 18:57:00,
2013-04-03 14:02:00,40.5,29.2,30.30,ESE,112,10.5,10.5,64,-99.99,,,0.00,wxRedirect v1.1,2013-04-03 19:02:00,
2013-04-03 14:07:00,40.5,29.2,30.29,ENE,67,5.6,10.5,64,-99.99,,,0.00,wxRedirect v1.1,2013-04-03 19:07:00,
2013-04-03 14:13:00,40.3,29.0,30.29,SE,135,6.0,6.3,64,-99.99,,,0.00,wxRedirect v1.1,2013-04-03 19:13:00,
2013-04-03 14:18:00,40.3,29.0,30.29,East,90,8.1,8.1,64,-99.99,,,0.00,wxRedirect v1.1,2013-04-03 19:18:00,
2013-04-03 14:24:00,40.1,29.2,30.28,East,90,0.0,8.1,65,-99.99,,,0.00,wxRedirect v1.1,2013-04-03 19:24:00,
2013-04-03 14:29:00,39.9,29.0,30.28,ESE,112,3.8,5.4,65,-99.99,,,0.00,wxRedirect v1.1,2013-04-03 19:29:00,
2013-04-03 14:34:00,40.3,29.8,30.28,ESE,112,5.8,7.8,66,-99.99,,,0.00,wxRedirect v1.1,2013-04-03 19:34:00,
2013-04-03 14:39:00,40.1,30.0,30.28,ENE,67,3.4,7.8,67,-99.99,,,0.00,wxRedirect v1.1,2013-04-03 19:39:00,
2013-04-03 14:45:00,39.9,29.8,30.28,East,90,6.7,11.6,67,-99.99,,,0.00,wxRedirect v1.1,2013-04-03 19:45:00,
2013-04-03 14:50:00,39.9,30.2,30.27,East,90,14.1,14.1,68,-99.99,,,0.00,wxRedirect v1.1,2013-04-03 19:50:00,
2013-04-03 14:56:00,39.7,30.0,30.28,ENE,67,2.2,14.1,68,-99.99,,,0.00,wxRedirect v1.1,2013-04-03 19:56:00,
2013-04-03 15:01:00,39.7,30.4,30.27,ESE,112,4.7,10.1,69,-99.99,,,0.00,wxRedirect v1.1,2013-04-03 20:01:00,
2013-04-03 15:06:00,39.7,30.7,30.27,ENE,67,8.9,9.2,70,-99.99,,,0.00,wxRedirect v1.1,2013-04-03 20:06:00,
2013-04-03 15:12:00,39.6,30.6,30.27,ENE,67,2.9,8.9,70,-99.99,,,0.00,wxRedirect v1.1,2013-04-03 20:12:00,
2013-04-03 15:17:00,39.6,30.9,30.27,ESE,112,6.7,6.7,71,-99.99,,,0.00,wxRedirect v1.1,2013-04-03 20:17:00,
2013-04-03 15:22:00,39.6,30.9,30.27,ESE,112,5.4,6.7,71,-99.99,,,0.00,wxRedirect v1.1,2013-04-03 20:22:00,
2013-04-03 15:27:00,39.4,30.7,30.26,East,90,10.1,10.1,71,-99.99,,,0.00,wxRedirect v1.1,2013-04-03 20:27:00,
2013-04-03 15:33:00,39.4,31.0,30.26,ENE,67,5.6,10.1,72,-99.99,,,0.00,wxRedirect v1.1,2013-04-03 20:33:00,
2013-04-03 15:38:00,39.2,30.9,30.26,ENE,67,11.6,11.6,72,-99.99,,,0.00,wxRedirect v1.1,2013-04-03 20:38:00,
2013-04-03 15:44:00,39.6,31.2,30.26,ESE,112,0.0,11.6,72,-99.99,,,0.00,wxRedirect v1.1,2013-04-03 20:44:00,
2013-04-03 15:49:00,39.6,30.9,30.26,ESE,112,0.0,11.6,71,-99.99,,,0.00,wxRedirect v1.1,2013-04-03 20:49:00,
2013-04-03 15:54:00,39.4,30.7,30.26,East,90,8.9,8.9,71,-99.99,,,0.00,wxRedirect v1.1,2013-04-03 20:54:00,
2013-04-03 16:00:00,39.7,31.1,30.26,ENE,67,5.6,8.9,71,-99.99,,,0.00,wxRedirect v1.1,2013-04-03 21:00:00,
2013-04-03 16:05:00,39.6,30.9,30.26,ESE,112,1.3,5.6,71,-99.99,,,0.00,wxRedirect v1.1,2013-04-03 21:05:00,
2013-04-03 16:10:00,39.6,30.9,30.26,ESE,112,3.8,7.6,71,-99.99,,,0.00,wxRedirect v1.1,2013-04-03 21:10:00,
2013-04-03 16:15:00,39.7,31.1,30.25,East,90,2.9,7.6,71,-99.99,,,0.00,wxRedirect v1.1,2013-04-03 21:15:00,
2013-04-03 16:21:00,39.7,31.1,30.25,East,90,6.9,7.4,71,-99.99,,,0.00,wxRedirect v1.1,2013-04-03 21:21:00,
2013-04-03 16:27:00,39.6,30.9,30.25,ENE,67,4.0,7.4,71,-99.99,,,0.00,wxRedirect v1.1,2013-04-03 21:27:00,
2013-04-03 16:32:00,39.7,31.1,30.24,East,90,4.7,6.9,71,-99.99,,,0.00,wxRedirect v1.1,2013-04-03 21:32:00,
2013-04-03 16:37:00,39.7,31.1,30.24,ESE,112,0.0,4.7,71,-99.99,,,0.00,wxRedirect v1.1,2013-04-03 21:37:00,
2013-04-03 16:42:00,39.7,31.1,30.24,East,90,4.0,4.0,71,-99.99,,,0.00,wxRedirect v1.1,2013-04-03 21:42:00,
2013-04-03 16:48:00,39.7,31.1,30.24,ESE,112,6.9,7.2,71,-99.99,,,0.00,wxRedirect v1.1,2013-04-03 21:48:00,
2013-04-03 16:53:00,39.7,31.1,30.24,ENE,67,1.8,7.2,71,-99.99,,,0.00,wxRedirect v1.1,2013-04-03 21:53:00,
2013-04-03 16:59:00,39.7,31.1,30.23,ENE,67,6.5,6.9,71,-99.99,,,0.00,wxRedirect v1.1,2013-04-03 21:59:00,
2013-04-03 17:04:00,39.7,31.1,30.24,ENE,67,3.4,8.1,71,-99.99,,,0.00,wxRedirect v1.1,2013-04-03 22:04:00,
2013-04-03 17:09:00,39.7,31.1,30.23,ESE,112,4.3,8.1,71,-99.99,,,0.00,wxRedirect v1.1,2013-04-03 22:09:00,
2013-04-03 17:14:00,39.7,31.1,30.23,ENE,67,3.8,4.3,71,-99.99,,,0.00,wxRedirect v1.1,2013-04-03 22:14:00,
2013-04-03 17:20:00,39.7,31.1,30.23,ESE,112,5.6,5.6,71,-99.99,,,0.00,wxRedirect v1.1,2013-04-03 22:20:00,
2013-04-03 17:25:00,39.7,30.7,30.23,ENE,67,0.0,5.8,70,-99.99,,,0.00,wxRedirect v1.1,2013-04-03 22:25:00,
2013-04-03 17:30:00,39.7,30.7,30.23,ESE,112,5.6,5.8,70,-99.99,,,0.00,wxRedirect v1.1,2013-04-03 22:30:00,
2013-04-03 17:36:00,39.7,30.7,30.23,ESE,112,0.4,6.0,70,-99.99,,,0.00,wxRedirect v1.1,2013-04-03 22:36:00,
2013-04-03 17:41:00,39.7,30.7,30.23,ENE,67,5.4,6.0,70,-99.99,,,0.00,wxRedirect v1.1,2013-04-03 22:41:00,
2013-04-03 17:46:00,39.6,30.6,30.23,ESE,112,8.5,8.5,70,-99.99,,,0.00,wxRedirect v1.1,2013-04-03 22:46:00,
2013-04-03 17:52:00,39.6,30.6,30.23,East,90,4.5,8.5,70,-99.99,,,0.00,wxRedirect v1.1,2013-04-03 22:52:00,
2013-04-03 17:57:00,39.9,30.9,30.23,ENE,67,5.1,8.5,70,-99.99,,,0.00,wxRedirect v1.1,2013-04-03 22:57:00,
2013-04-03 18:02:00,39.7,30.7,30.23,NE,45,6.0,6.9,70,-99.99,,,0.00,wxRedirect v1.1,2013-04-03 23:02:00,
2013-04-03 18:08:00,39.7,30.7,30.23,ENE,67,4.0,6.0,70,-99.99,,,0.00,wxRedirect v1.1,2013-04-03 23:08:00,
2013-04-03 18:13:00,39.7,30.7,30.23,ENE,67,5.4,5.4,70,-99.99,,,0.00,wxRedirect v1.1,2013-04-03 23:13:00,
2013-04-03 18:19:00,39.9,30.9,30.23,ENE,67,5.4,6.5,70,-99.99,,,0.00,wxRedirect v1.1,2013-04-03 23:19:00,
2013-04-03 18:24:00,39.9,30.9,30.23,East,90,2.5,9.8,70,-99.99,,,0.00,wxRedirect v1.1,2013-04-03 23:24:00,
2013-04-03 18:29:00,39.9,30.9,30.23,East,90,2.5,9.8,70,-99.99,,,0.00,wxRedirect v1.1,2013-04-03 23:29:00,
2013-04-03 18:34:00,39.9,30.9,30.23,ENE,67,4.0,5.6,70,-99.99,,,0.00,wxRedirect v1.1,2013-04-03 23:34:00,
2013-04-03 18:40:00,39.9,30.9,30.24,ENE,67,4.0,5.6,70,-99.99,,,0.00,wxRedirect v1.1,2013-04-03 23:40:00,
2013-04-03 18:45:00,39.9,30.9,30.24,ENE,67,4.0,4.0,70,-99.99,,,0.00,wxRedirect v1.1,2013-04-03 23:45:00,
2013-04-03 18:50:00,39.7,30.7,30.24,ENE,67,3.1,4.0,70,-99.99,,,0.00,wxRedirect v1.1,2013-04-03 23:50:00,
2013-04-03 18:56:00,39.7,30.7,30.24,East,90,4.5,4.5,70,-99.99,,,0.00,wxRedirect v1.1,2013-04-03 23:56:00,
2013-04-03 19:02:00,39.7,30.7,30.24,ENE,67,1.1,4.5,70,-99.99,,,0.00,wxRedirect v1.1,2013-04-04 00:02:00,
2013-04-03 19:07:00,39.7,30.7,30.24,ENE,67,1.8,4.0,70,-99.99,,,0.00,wxRedirect v1.1,2013-04-04 00:07:00,
2013-04-03 19:12:00,39.7,30.7,30.24,ENE,67,6.3,7.4,70,-99.99,,,0.00,wxRedirect v1.1,2013-04-04 00:12:00,
2013-04-03 19:17:00,39.7,30.7,30.25,East,90,0.0,7.4,70,-99.99,,,0.00,wxRedirect v1.1,2013-04-04 00:17:00,
2013-04-03 19:23:00,39.7,30.7,30.25,East,90,0.0,6.3,70,-99.99,,,0.00,wxRedirect v1.1,2013-04-04 00:23:00,
2013-04-03 19:28:00,39.6,30.6,30.24,East,90,4.7,4.7,70,-99.99,,,0.00,wxRedirect v1.1,2013-04-04 00:28:00,
2013-04-03 19:34:00,39.7,30.7,30.24,East,90,4.3,4.7,70,-99.99,,,0.00,wxRedirect v1.1,2013-04-04 00:34:00,
2013-04-03 19:39:00,39.7,30.7,30.24,East,90,0.0,4.3,70,-99.99,,,0.00,wxRedirect v1.1,2013-04-04 00:39:00,
2013-04-03 19:44:00,39.4,30.7,30.24,East,90,0.0,4.3,71,-99.99,,,0.00,wxRedirect v1.1,2013-04-04 00:44:00,
2013-04-03 19:49:00,39.4,30.7,30.24,East,90,0.0,5.1,71,-99.99,,,0.00,wxRedirect v1.1,2013-04-04 00:49:00,
2013-04-03 19:54:00,39.7,31.1,30.24,ENE,67,0.0,5.1,71,-99.99,,,0.00,wxRedirect v1.1,2013-04-04 00:54:00,
2013-04-03 20:00:00,39.7,31.1,30.24,East,90,0.0,3.1,71,-99.99,,,0.00,wxRedirect v1.1,2013-04-04 01:00:00,
2013-04-03 20:05:00,39.7,31.1,30.24,East,90,2.0,2.5,71,-99.99,,,0.00,wxRedirect v1.1,2013-04-04 01:05:00,
2013-04-03 20:10:00,39.7,31.1,30.24,ENE,67,3.1,3.1,71,-99.99,,,0.00,wxRedirect v1.1,2013-04-04 01:10:00,
2013-04-03 20:16:00,39.4,31.0,30.24,ENE,67,1.3,3.1,72,-99.99,,,0.00,wxRedirect v1.1,2013-04-04 01:16:00,
2013-04-03 20:21:00,39.6,31.2,30.24,East,90,0.0,1.3,72,-99.99,,,0.00,wxRedirect v1.1,2013-04-04 01:21:00,
2013-04-03 20:26:00,39.6,31.2,30.23,ENE,67,0.0,1.8,72,-99.99,,,0.00,wxRedirect v1.1,2013-04-04 01:26:00,
2013-04-03 20:32:00,39.6,31.2,30.24,ENE,67,1.1,3.1,72,-99.99,,,0.00,wxRedirect v1.1,2013-04-04 01:32:00,
2013-04-03 20:37:00,39.6,31.2,30.24,ENE,67,0.0,3.1,72,-99.99,,,0.00,wxRedirect v1.1,2013-04-04 01:37:00,
2013-04-03 20:42:00,39.6,31.2,30.24,NE,45,1.1,3.6,72,-99.99,,,0.00,wxRedirect v1.1,2013-04-04 01:42:00,
2013-04-03 20:47:00,39.6,31.2,30.24,ENE,67,0.0,3.6,72,-99.99,,,0.00,wxRedirect v1.1,2013-04-04 01:47:00,
2013-04-03 20:53:00,39.6,31.2,30.24,NE,45,3.8,3.8,72,-99.99,,,0.00,wxRedirect v1.1,2013-04-04 01:53:00,
2013-04-03 20:58:00,39.6,31.2,30.24,ENE,67,3.4,3.8,72,-99.99,,,0.00,wxRedirect v1.1,2013-04-04 01:58:00,
2013-04-03 21:04:00,39.6,31.6,30.24,ENE,67,0.0,3.8,73,-99.99,,,0.00,wxRedirect v1.1,2013-04-04 02:04:00,
2013-04-03 21:09:00,39.6,31.6,30.24,NE,45,1.6,5.8,73,-99.99,,,0.00,wxRedirect v1.1,2013-04-04 02:09:00,
2013-04-03 21:14:00,39.6,31.6,30.24,NE,45,0.0,5.8,73,-99.99,,,0.00,wxRedirect v1.1,2013-04-04 02:14:00,
2013-04-03 21:19:00,39.6,31.6,30.24,ENE,67,1.8,1.8,73,-99.99,,,0.00,wxRedirect v1.1,2013-04-04 02:19:00,
2013-04-03 21:25:00,39.4,31.4,30.24,NE,45,0.0,1.8,73,-99.99,,,0.00,wxRedirect v1.1,2013-04-04 02:25:00,
2013-04-03 21:30:00,39.4,31.4,30.24,NE,45,0.0,0.0,73,-99.99,,,0.00,wxRedirect v1.1,2013-04-04 02:30:00,
2013-04-03 21:35:00,39.4,31.7,30.24,East,90,0.0,1.6,74,-99.99,,,0.00,wxRedirect v1.1,2013-04-04 02:35:00,
2013-04-03 21:41:00,39.4,31.7,30.24,NE,45,3.1,3.1,74,-99.99,,,0.00,wxRedirect v1.1,2013-04-04 02:41:00,
2013-04-03 21:47:00,39.4,31.4,30.25,NE,45,0.0,3.1,73,-99.99,,,0.00,wxRedirect v1.1,2013-04-04 02:47:00,
2013-04-03 21:52:00,39.4,31.4,30.25,NE,45,0.4,2.0,73,-99.99,,,0.00,wxRedirect v1.1,2013-04-04 02:52:00,
2013-04-03 21:57:00,39.4,31.4,30.25,NE,45,4.0,6.0,73,-99.99,,,0.00,wxRedirect v1.1,2013-04-04 02:57:00,
2013-04-03 22:03:00,39.4,31.4,30.25,NE,45,0.0,6.0,73,-99.99,,,0.00,wxRedirect v1.1,2013-04-04 03:03:00,
2013-04-03 22:08:00,39.4,31.4,30.25,NE,45,0.0,4.0,73,-99.99,,,0.00,wxRedirect v1.1,2013-04-04 03:08:00,
2013-04-03 22:14:00,39.6,31.6,30.25,NE,45,2.7,2.7,73,-99.99,,,0.00,wxRedirect v1.1,2013-04-04 03:14:00,
2013-04-03 22:19:00,39.6,31.6,30.25,NE,45,0.0,3.8,73,-99.99,,,0.00,wxRedirect v1.1,2013-04-04 03:19:00,
2013-04-03 22:24:00,39.7,31.7,30.25,NE,45,2.5,3.8,73,-99.99,,,0.00,wxRedirect v1.1,2013-04-04 03:24:00,
2013-04-03 22:30:00,39.7,31.7,30.25,NNE,22,1.1,4.0,73,-99.99,,,0.00,wxRedirect v1.1,2013-04-04 03:30:00,
2013-04-03 22:35:00,39.7,31.7,30.25,NNE,22,0.0,4.0,73,-99.99,,,0.00,wxRedirect v1.1,2013-04-04 03:35:00,
2013-04-03 22:40:00,39.7,31.7,30.25,NNE,22,5.1,6.0,73,-99.99,,,0.00,wxRedirect v1.1,2013-04-04 03:40:00,
2013-04-03 22:45:00,39.7,31.7,30.25,NNE,22,0.0,6.0,73,-99.99,,,0.00,wxRedirect v1.1,2013-04-04 03:45:00,
2013-04-03 22:51:00,39.7,31.7,30.25,NNE,22,2.5,2.5,73,-99.99,,,0.00,wxRedirect v1.1,2013-04-04 03:51:00,
2013-04-03 22:57:00,39.7,31.7,30.24,NNE,22,1.6,2.5,73,-99.99,,,0.00,wxRedirect v1.1,2013-04-04 03:57:00,
2013-04-03 23:00:00,39.9,31.9,30.24,NNE,22,1.6,2.5,73,-99.99,,,0.00,wxRedirect v1.1,2013-04-04 04:00:00,
2013-04-03 23:01:00,39.9,31.9,30.24,NNE,22,1.6,2.5,73,-99.99,,,0.00,wxRedirect v1.1,2013-04-04 04:01:00,
2013-04-03 23:03:00,39.9,31.9,30.24,NNE,22,1.6,2.5,73,-99.99,,,0.00,wxRedirect v1.1,2013-04-04 04:03:00,
2013-04-03 23:09:00,39.9,31.9,30.24,NNE,22,0.2,1.6,73,-99.99,,,0.00,wxRedirect v1.1,2013-04-04 04:09:00,
2013-04-03 23:15:00,39.9,31.9,30.24,NNE,22,2.2,4.9,73,-99.99,,,0.00,wxRedirect v1.1,2013-04-04 04:15:00,
2013-04-03 23:20:00,39.9,31.9,30.24,NNE,22,0.9,4.9,73,-99.99,,,0.00,wxRedirect v1.1,2013-04-04 04:20:00,
2013-04-03 23:25:00,39.9,31.6,30.24,NNE,22,0.9,0.9,72,-99.99,,,0.00,wxRedirect v1.1,2013-04-04 04:25:00,
2013-04-03 23:31:00,39.9,31.6,30.24,NNE,22,0.0,0.9,72,-99.99,,,0.00,wxRedirect v1.1,2013-04-04 04:31:00,
2013-04-03 23:36:00,39.9,31.6,30.24,NNE,22,0.2,3.1,72,-99.99,,,0.00,wxRedirect v1.1,2013-04-04 04:36:00,
2013-04-03 23:41:00,39.9,31.6,30.24,NNE,22,0.0,3.1,72,-99.99,,,0.00,wxRedirect v1.1,2013-04-04 04:41:00,
2013-04-03 23:47:00,39.9,31.9,30.24,NNE,22,0.0,0.0,73,-99.99,,,0.00,wxRedirect v1.1,2013-04-04 04:47:00,
2013-04-03 23:52:00,39.9,31.9,30.24,NNE,22,0.0,0.0,73,-99.99,,,0.00,wxRedirect v1.1,2013-04-04 04:52:00,
2013-04-03 23:57:00,39.9,31.6,30.24,NNE,22,0.7,0.7,72,-99.99,,,0.00,wxRedirect v1.1,2013-04-04 04:57:00,